Home   Weather   Poole   Past weeks

Flag for United Kingdom Past Weather in Poole, England, United Kingdom — Yesterday and Last 2 Weeks

Now
52 °F

Fog.


Feels Like: 52 °F
Forecast: 51 / 71 °F
Wind: 1 mph from South

Location: Boscombe Down

Current Time: Aug 31, 2016 at 5:29:43 AM

Latest Report: Aug 31, 2016 at 4:50 AM


Visibility: 6 mi

Pressure: 30.12 "Hg

Humidity: 94%

Dew Point: 50 °F

Location of PooleLocation

Past Weather in Poole — Graph

°F

Poole Temperature Yesterday

Maximum temperature yesterday: 75 °F (at 2:50 PM)
Minimum temperature yesterday: 50 °F (at 6:50 AM)
Average temperature yesterday: 63 °F

High & Low Weather Summary for the Past Weeks

 TemperatureHumidityPressure
High82 °F (Aug 24, 2:50 PM)100% (Aug 17, 7:50 AM)30.27 "Hg (Aug 17, 7:50 AM)
Low50 °F (Aug 30, 6:50 AM)39% (Aug 30, 2:50 PM)29.62 "Hg (Aug 19, 5:50 PM)
Average64 °F79%30.00 "Hg
* Reported Aug 16 3:50 AM — Aug 31 3:50 AM, Poole, Weather by CustomWeather, © 2016

Note: Actual official high and low records may vary slightly from our data, if they occured in-between our weather recording intervals... More about our weather records

Advertising

Poole Weather History for the Previous 24 Hours

Scroll right to see more
 ConditionsComfort  
Time TempWeatherWind HumidityBarometerVisibility
3:50 AM
Wed, Aug 31
54 °FFog.3 mph94%30.12 "Hg3 mi
2:50 AM54 °FCool.6 mph94%30.12 "HgN/A
1:50 AM54 °FCool.3 mph94%30.15 "HgN/A
12:50 AM55 °FCool.5 mph88%30.15 "HgN/A
11:50 PM
Tue, Aug 30
55 °FCool.5 mph88%30.18 "HgN/A
10:50 PM59 °FCool.6 mph77%30.18 "HgN/A
9:50 PM61 °FCool.6 mph72%30.18 "HgN/A
7:50 PM66 °FMild.7 mph56%30.18 "HgN/A
6:50 PM70 °FMild.10 mph46%30.18 "HgN/A
5:50 PM72 °FSunny.9 mph47%30.18 "Hg10 mi
4:50 PM75 °FSunny.9 mph39%30.21 "Hg10 mi
3:50 PM75 °FSunny.10 mph39%30.21 "Hg10 mi
2:50 PM75 °FSunny.13 mph39%30.24 "Hg10 mi
1:50 PM73 °FPassing clouds.8 mph47%30.24 "HgN/A
12:50 PM73 °FPassing clouds.10 mph44%30.27 "HgN/A
11:50 AM72 °FPassing clouds.10 mph53%30.27 "HgN/A
10:50 AM70 °FPassing clouds.9 mph57%30.27 "HgN/A
9:50 AM64 °FSunny.3 mph73%30.27 "Hg10 mi
8:50 AM59 °FSunny.2 mph88%30.27 "Hg10 mi
7:50 AM54 °FFog.No wind94%30.27 "HgN/A
6:50 AM50 °FFog.1 mph100%30.27 "Hg6 mi
5:50 AM52 °FCool.2 mph100%30.27 "HgN/A
Weather by CustomWeather, © 2016

See weather overviewHow to use our weather pages